FENGYUN 1C DEB, 29898

Orbit data source: Space-Track

FENGYUN 1C DEB, 29898 is space debris in SSO originally from a launch on Mon, 10 May 1999 UTC launched from the Taiyaun Space Center, China (TSC). Fengyun 1C debris stems from the Chinese weather satellite Fengyun-1C, which was intentionally destroyed by a Chinese anti-satellite missile in 2007. This event dramatically increased the amount of space debris, with thousands of trackable fragments posing hazards to satellites and human spaceflight. The Fengyun 1C debris cloud has become a focal point in discussions about space sustainability and the need for international regulations to prevent the creation of new debris.

Loading next visibility...
Identifier
29898, 1999-025GU
Orbit
SSO
Country
Flag of CNCN / PRC
Related business
Manufacturer
Unknown
Mission
Spacecraft
Bus & Motor
Unknown
Mass
Unknown
Launch date (UTC)
1999-05-10 (27 years ago)
Launch vehicle
Unknown
Launch site
Taiyaun Space Center, China (TSC)
Object type
Payload
Rocket body
Debris
Shape & HBR
Unknown shape, 0.1 m
Radar Cross Section
Small (<0.1 m²)

Expand to show TLE details & history
Last TLE update: 1 day ago

TLE from 1 day ago
0 FENGYUN 1C DEB
1 29898U 99025GU  25350.96938712  .00002142  00000-0  12908-2 0  9992
2 29898  98.2224 342.7211 0427072 177.8686 254.8245 13.70333314932192
Epoch: 2025-12-16T23:15Z
TLE epoch observation values (Epoch: 2025-12-16T23:15:55.047Z)
Latitude
66.70455°
Longitude
-111.60925°
Altitude
1,104.677 km
Speed
7.259 km/s
True Right ascension
21h 32m 51s
True Declination
66° 35' 07"
Sunlit
Object was in daylight at epoch
Visualization orbit readout
Latitude
Unknown
Longitude
Unknown
Altitude
Unknown
Speed
Unknown
Apparent Right ascension
Unknown
Apparent Declination
Unknown
Sunlit
N/A
Visualization observer readout
Local Sidereal Time
21:52:06
Azimuth
Unknown
Elevation
Unknown
Doppler factor
Unknown
Orbital elements
Apogee altitude
1,310.481 km
Perigee altitude
680.66 km
Semi-major axis
7,373.707 km
Eccentricity
0.04271
Inclination
98.2224°
RAAN
342.7211°
Arg. of periapsis
177.8686°
True anomaly
250.17151°
Mean anomaly
254.8245°
Eccentric anomaly
252.49093°
Mean motion
3.42779 °/min
Orbital period
105.02 mins
BSTAR
0.0012908
Loading maneuver chart data...
Computing Atmospheric mass density...

Documentation

Showing up to 5 results
|